This is the latest recevied weather packets stored in our database for station/object K5SVV. If no packets are shown the sender has not sent any weather packets the latest 10 day(s).
| Time | Temp. | Humidity | Pressure | Rain* | Wind** | Luminosity | Snow |
|---|---|---|---|---|---|---|---|
| 1777832451 | 25° C | 47% | 1019.5 hPa | 0 mm | - | 794 W/m² | - |
| 1777832148 | 25° C | 45% | 1019.9 hPa | 0 mm | - | 792 W/m² | - |
| 1777831844 | 25° C | 43% | 1019.8 hPa | 0 mm | - | 782 W/m² | - |
| 1777831541 | 25° C | 45% | 1019.7 hPa | 0 mm | - | 798 W/m² | - |
| 1777831239 | 25° C | 45% | 1020.2 hPa | 0 mm | - | 790 W/m² | - |
| 1777830936 | 25° C | 48% | 1019.9 hPa | 0 mm | - | 783 W/m² | - |
| 1777830633 | 24.44° C | 45% | 1020.1 hPa | 0 mm | - | 782 W/m² | - |
| 1777830330 | 25° C | 49% | 1020.2 hPa | 0 mm | - | 765 W/m² | - |
| 1777830026 | 24.44° C | 52% | 1020.4 hPa | 0 mm | - | 750 W/m² | - |
| 1777829722 | 24.44° C | 50% | 1020.5 hPa | 0 mm | - | 773 W/m² | - |
| 1777829418 | 23.89° C | 52% | 1020.3 hPa | 0 mm | - | 795 W/m² | - |
| 1777829116 | 24.44° C | 53% | 1020.6 hPa | 0 mm | - | 789 W/m² | - |
| 1777828813 | 23.89° C | 56% | 1020.8 hPa | 0 mm | - | 790 W/m² | - |
| 1777828509 | 23.89° C | 54% | 1020.9 hPa | 0 mm | - | 790 W/m² | - |
| 1777828207 | 23.89° C | 53% | 1020.8 hPa | 0 mm | - | 793 W/m² | - |
| 1777827903 | 23.89° C | 54% | 1020.8 hPa | 0 mm | - | 794 W/m² | - |
| 1777827600 | 23.89° C | 56% | 1020.8 hPa | 0 mm | - | 794 W/m² | - |
| 1777827298 | 23.33° C | 56% | 1020.9 hPa | 0 mm | - | 767 W/m² | - |
| 1777826994 | 23.89° C | 54% | 1021 hPa | 0 mm | - | 766 W/m² | - |
| 1777826691 | 23.33° C | 56% | 1021.2 hPa | 0 mm | - | 789 W/m² | - |
| 1777826387 | 23.33° C | 55% | 1021.1 hPa | 0 mm | - | 804 W/m² | - |
| 1777826085 | 23.33° C | 54% | 1021 hPa | 0 mm | - | 782 W/m² | - |
| 1777825781 | 22.78° C | 55% | 1021.1 hPa | 0 mm | - | 789 W/m² | - |
| 1777825479 | 22.78° C | 54% | 1021 hPa | 0 mm | - | 792 W/m² | - |
| 1777825176 | 22.78° C | 56% | 1021.3 hPa | 0 mm | - | 750 W/m² | - |
* Rain latest hour (hover to see other rain measurements)
** Current wind speed in m/s (hover to see current wind gust speed)